Location: Newark
(13.6797°N, 8.5297°E)
Time: 07:48:47
(UTC+00:00)

Courier 1B Rocket - Pass Details

Date: 18 January 2020
Orbit: 920 x 1202 km, 28.2° (Epoch: 17 February)

Event Time Altitude Azimuth Distance (km) Brightness Sun altitude
Rises 12:13:47 0° 253° (WSW) 3,830 8.4 54.5°
Reaches altitude 10° 12:16:38 10° 257° (WSW) 2,831 7.8 54.3°
Maximum altitude 12:23:22 59° 336° (NNW) 1,120 5.9 53.8°
Drops below altitude 10° 12:29:41 10° 55° (NE) 2,656 7.1 53.3°
Sets 12:32:17 0° 59° (ENE) 3,577 7.7 53.1°
